Weather History for KBVU - January, 2014

Change the Weather History Date:

Friday, January 31, 2014

  Actual Average (KLAS) Record (KLAS)
Temperature  
Mean Temperature 52 °F 50 °F  
Max Temperature 57 °F 60 °F 75 °F (2003)
Min Temperature 48 °F 41 °F 19 °F (1949)
Degree Days  
Heating Degree Days 12 15  
Month to date heating degree days 505  
Since 1 July heating degree days 1352  
Cooling Degree Days 0 0  
Month to date cooling degree days 0  
Year to date cooling degree days 0  
Growing Degree Days 2 (Base 50)    
Moisture  
Dew Point 32 °F    
Average Humidity 46    
Maximum Humidity 58    
Minimum Humidity 26    
Precipitation  
Precipitation 0.00 in 0.02 in 0.60 in (1979)
Month to date precipitation 0.54  
Year to date precipitation 0.54  
Snow  
Snow 0.00 in 0.00 in 7.40 in (1979)
Month to date snowfall 0.0  
Since 1 July snowfall 0.2  
Snow Depth -    
Sea Level Pressure  
Sea Level Pressure 29.80 in    
Wind  
Wind Speed 10 mph (NW)    
Max Wind Speed 20 mph    
Max Gust Speed 21 mph    
Visibility 10 miles    
Events      
T = Trace of Precipitation, MM = Missing Value Source: NWS Daily Summary

Daily Weather History Graph

Daily Weather History Graph

Search for Another Location

Airport or City:

Trip Planner

Search our weather history database for the weather conditions in past years. The results will help you decide how hot, cold, wet, or windy it might be!

Date:

Astronomy

Jan. 31, 2014 Rise Set
Actual Time 6:40 AM PST 5:05 PM PST
Civil Twilight 6:13 AM PST 5:32 PM PST
Nautical Twilight 5:43 AM PST 6:03 PM PST
Astronomical Twilight 5:12 AM PST 6:33 PM PST
Moon 6:56 AM PST (1/31) 6:30 PM PST (1/31)
Length of Visible Light 11h 18m
Length of Day
10h 24m
New Moon, 1% of the Moon is Illuminated
Jan 31
New Moon
Feb 6
First Quarter
Feb 14
Full
Feb 22
Last Quarter
Mar 1
New

Hourly Weather History & Observations

Time (PST) Temp. Dew Point Humidity Pressure Visibility Wind Dir Wind Speed Gust Speed Precip Events Conditions
12:15 AM 55.4 °F 37.4 °F 51% 29.72 in 10.0 mi WSW 9.2 mph - N/A   Clear
12:35 AM 55.4 °F 35.6 °F 47% 29.73 in 10.0 mi SW 10.4 mph - N/A   Partly Cloudy
12:55 AM 55.4 °F 35.6 °F 47% 29.73 in 10.0 mi SSW 8.1 mph - N/A   Scattered Clouds
1:15 AM 55.4 °F 35.6 °F 47% 29.72 in 10.0 mi SW 12.7 mph - N/A   Clear
1:35 AM 55.4 °F 35.6 °F 47% 29.72 in 10.0 mi WSW 15.0 mph - N/A   Clear
1:55 AM 55.4 °F 35.6 °F 47% 29.72 in 10.0 mi WSW 16.1 mph - N/A   Clear
2:15 AM 55.4 °F 35.6 °F 47% 29.72 in 10.0 mi WSW 16.1 mph - N/A   Clear
2:35 AM 53.6 °F 35.6 °F 51% 29.72 in 10.0 mi WSW 13.8 mph - N/A   Partly Cloudy
2:55 AM 53.6 °F 35.6 °F 51% 29.72 in 10.0 mi SW 10.4 mph - N/A   Clear
3:15 AM 53.6 °F 35.6 °F 51% 29.72 in 10.0 mi SSW 11.5 mph - N/A   Clear
3:35 AM 51.8 °F 35.6 °F 54% 29.72 in 10.0 mi SW 8.1 mph - N/A   Clear
3:55 AM 53.6 °F 35.6 °F 51% 29.72 in 10.0 mi West 12.7 mph - N/A   Clear
4:15 AM 53.6 °F 35.6 °F 51% 29.72 in 10.0 mi WSW 10.4 mph 17.3 mph N/A   Clear
4:35 AM 53.6 °F 35.6 °F 51% 29.72 in 10.0 mi WSW 13.8 mph - N/A   Scattered Clouds
4:55 AM 53.6 °F 35.6 °F 51% 29.73 in 10.0 mi WSW 15.0 mph - N/A   Scattered Clouds
5:15 AM 53.6 °F 35.6 °F 51% 29.73 in 10.0 mi WSW 13.8 mph - N/A   Mostly Cloudy
5:35 AM 53.6 °F 35.6 °F 51% 29.73 in 10.0 mi WSW 10.4 mph - N/A   Mostly Cloudy
5:55 AM 53.6 °F 35.6 °F 51% 29.74 in 10.0 mi WSW 10.4 mph - N/A   Mostly Cloudy
6:15 AM 51.8 °F 35.6 °F 54% 29.75 in 10.0 mi SW 12.7 mph - N/A   Mostly Cloudy
6:35 AM 51.8 °F 37.4 °F 58% 29.76 in 10.0 mi SW 13.8 mph - N/A   Overcast
6:55 AM 51.8 °F 37.4 °F 58% 29.76 in 10.0 mi SW 11.5 mph - N/A   Mostly Cloudy
7:15 AM 50.0 °F 33.8 °F 54% 29.78 in 10.0 mi NW 13.8 mph - N/A   Scattered Clouds
7:35 AM 48.2 °F 33.8 °F 58% 29.79 in 10.0 mi NW 17.3 mph - N/A   Scattered Clouds
7:55 AM 48.2 °F 33.8 °F 58% 29.80 in 10.0 mi NNW 12.7 mph - N/A   Scattered Clouds
8:15 AM 48.2 °F 33.8 °F 58% 29.81 in 10.0 mi North 9.2 mph - N/A   Scattered Clouds
8:35 AM 50.0 °F 35.6 °F 58% 29.81 in 10.0 mi NW 17.3 mph - N/A   Mostly Cloudy
8:55 AM 50.0 °F 35.6 °F 58% 29.82 in 10.0 mi NW 15.0 mph 20.7 mph N/A   Mostly Cloudy
9:15 AM 51.8 °F 35.6 °F 54% 29.82 in 10.0 mi NW 15.0 mph - N/A   Mostly Cloudy
9:35 AM 51.8 °F 35.6 °F 54% 29.83 in 10.0 mi NW 12.7 mph - N/A   Scattered Clouds
9:55 AM 51.8 °F 35.6 °F 54% 29.84 in 10.0 mi NNW 12.7 mph - N/A   Scattered Clouds
10:15 AM 53.6 °F 35.6 °F 51% 29.84 in 10.0 mi North 8.1 mph - N/A   Mostly Cloudy
10:35 AM 53.6 °F 33.8 °F 47% 29.84 in 10.0 mi NNW 4.6 mph - N/A   Overcast
10:55 AM 53.6 °F 35.6 °F 51% 29.85 in 10.0 mi NE 4.6 mph - N/A   Mostly Cloudy
11:15 AM 53.6 °F 35.6 °F 51% 29.84 in 10.0 mi North 3.5 mph - N/A   Overcast
11:35 AM 53.6 °F 35.6 °F 51% 29.83 in 10.0 mi ENE 4.6 mph - N/A   Mostly Cloudy
11:55 AM 55.4 °F 35.6 °F 47% 29.82 in 10.0 mi North 5.8 mph - N/A   Scattered Clouds
12:15 PM 55.4 °F 35.6 °F 47% 29.81 in 10.0 mi Calm Calm - N/A   Mostly Cloudy
12:35 PM 55.4 °F 35.6 °F 47% 29.80 in 10.0 mi Calm Calm - N/A   Overcast
12:55 PM 55.4 °F 35.6 °F 47% 29.80 in 10.0 mi Calm Calm - N/A   Overcast
1:15 PM 55.4 °F 35.6 °F 47% 29.79 in 10.0 mi Calm Calm - N/A   Overcast
1:35 PM 55.4 °F 35.6 °F 47% 29.79 in 10.0 mi ENE 3.5 mph - N/A   Overcast
1:55 PM 55.4 °F 33.8 °F 44% 29.79 in 10.0 mi Calm Calm - N/A   Overcast
2:15 PM 55.4 °F 33.8 °F 44% 29.79 in 10.0 mi Calm Calm - N/A   Overcast
2:35 PM 57.2 °F 35.6 °F 44% 29.78 in 10.0 mi NE 4.6 mph - N/A   Overcast
2:55 PM 55.4 °F 35.6 °F 47% 29.78 in 10.0 mi NNE 4.6 mph - N/A   Overcast
3:15 PM 57.2 °F 35.6 °F 44% 29.79 in 10.0 mi Calm Calm - N/A   Overcast
3:35 PM 57.2 °F 33.8 °F 41% 29.80 in 10.0 mi NNW 10.4 mph - N/A   Mostly Cloudy
3:55 PM 55.4 °F 33.8 °F 44% 29.80 in - NW 11.5 mph - N/A   Mostly Cloudy
4:15 PM 55.4 °F 32.0 °F 41% 29.81 in 10.0 mi NNW 13.8 mph - N/A   Mostly Cloudy
4:35 PM 55.4 °F 32.0 °F 41% 29.82 in 10.0 mi NNW 11.5 mph - N/A   Overcast
4:55 PM 55.4 °F 33.8 °F 44% 29.82 in 10.0 mi NNW 8.1 mph - N/A   Overcast
5:15 PM 55.4 °F 30.2 °F 38% 29.82 in 10.0 mi NW 10.4 mph - N/A   Mostly Cloudy
5:35 PM 53.6 °F 28.4 °F 38% 29.82 in 10.0 mi NW 9.2 mph 15.0 mph N/A   Scattered Clouds
5:55 PM 53.6 °F 28.4 °F 38% 29.82 in 10.0 mi WNW 9.2 mph - N/A   Partly Cloudy
6:15 PM 53.6 °F 28.4 °F 38% 29.82 in 10.0 mi NW 5.8 mph - N/A   Clear
6:35 PM 51.8 °F 28.4 °F 41% 29.82 in 10.0 mi NNW 6.9 mph - N/A   Clear
6:55 PM 50.0 °F 28.4 °F 43% 29.82 in 10.0 mi North 5.8 mph - N/A   Clear
7:15 PM 48.2 °F 28.4 °F 46% 29.83 in 10.0 mi North 5.8 mph - N/A   Partly Cloudy
7:35 PM 50.0 °F 28.4 °F 43% 29.83 in 10.0 mi NNW 8.1 mph - N/A   Clear
7:55 PM 51.8 °F 24.8 °F 35% 29.84 in 10.0 mi NNW 11.5 mph 18.4 mph N/A   Clear
8:15 PM 50.0 °F 24.8 °F 37% 29.85 in 10.0 mi North 10.4 mph - N/A   Clear
8:35 PM 50.0 °F 23.0 °F 35% 29.85 in 10.0 mi NNW 11.5 mph - N/A   Partly Cloudy
8:55 PM 51.8 °F 21.2 °F 30% 29.86 in 10.0 mi NNW 18.4 mph - N/A   Partly Cloudy
9:15 PM 51.8 °F 17.6 °F 26% 29.87 in 10.0 mi NW 13.8 mph - N/A   Partly Cloudy
9:35 PM 51.8 °F 17.6 °F 26% 29.88 in 10.0 mi North 11.5 mph 18.4 mph N/A   Scattered Clouds
9:55 PM 50.0 °F 28.4 °F 43% 29.89 in 10.0 mi North 12.7 mph - N/A   Clear
10:15 PM 50.0 °F 26.6 °F 40% 29.89 in 10.0 mi North 15.0 mph - N/A   Clear
10:35 PM 48.2 °F 26.6 °F 43% 29.90 in 10.0 mi North 13.8 mph - N/A   Clear
10:55 PM 48.2 °F 26.6 °F 43% 29.90 in 10.0 mi North 15.0 mph - N/A   Clear
11:15 PM 48.2 °F 23.0 °F 37% 29.89 in 10.0 mi NNW 19.6 mph - N/A   Clear
11:35 PM 48.2 °F 23.0 °F 37% 29.90 in 10.0 mi NNW 12.7 mph 20.7 mph N/A   Partly Cloudy
11:55 PM 48.2 °F 23.0 °F 37% 29.91 in 10.0 mi NNW 9.2 mph 16.1 mph N/A   Scattered Clouds